[[{"header":{"parameterUnit":"m.s-1","parameterCategory":1,"la1":30.2991,"la2":30.254,"lo1":-89.0895,"lo2":-89.0444,"dy":0.0017,"dx":0.0017,"nx":28,"ny":28,"refTime":"2024-07-15T09:00:00:Z","depth":0,"parameterNumber":2,"parameterNumberName":"U-component_of_WINDS"},"data":[0,0,0,0,0,0,0,0,0,0,0,0,0,0,0,0,0,0,0,0,0,0,0,0,0,0,0,0,0,0,0,0,0,0,0,0,0,0,0,0,0,0,0,0,0,0,0,0,0,0,0,0,0,0,0,0,0,0,3.6091,3.6092,0,3.616,3.6161,3.6162,3.6113,3.6111,3.6109,3.6107,3.6176,3.618,3.6184,0,0,0,0,0,0,0,0,0,0,0,0,0,3.5914,3.5918,3.6091,3.6092,3.6093,3.616,3.6161,3.6162,3.6113,3.6111,3.6108,3.6106,3.6175,3.6179,3.6184,0,0,0,0,0,0,0,0,0,0,0,0,0,3.5988,3.5919,3.6091,3.6077,3.6076,3.616,3.6161,3.6162,3.6114,3.6111,3.6107,3.6104,3.6173,3.6179,3.6185,3.6286,0,0,3.6203,3.6205,0,0,0,0,0,0,0,0,3.5984,3.5995,3.6078,3.6078,3.6077,3.6125,3.6124,3.6204,3.6115,3.61,3.6107,3.6103,3.6162,3.6168,3.6188,3.6289,3.6292,3.6203,3.6207,3.6209,3.6211,0,0,0,0,0,0,0,3.5979,3.5991,3.6119,3.6079,3.6079,3.6066,3.6073,3.6139,3.6148,3.6101,3.6097,3.6106,3.6161,3.6183,3.619,3.6293,3.6203,3.6208,3.6212,3.6214,3.6478,3.6481,0,0,0,0,0,0,3.5975,3.5987,3.6116,3.6121,3.6022,3.6072,3.608,3.6113,3.6147,3.6149,3.6109,3.6104,3.6174,3.6183,3.6192,3.631,3.6209,3.6215,3.6218,3.6474,3.6479,3.6483,0,0,0,0,0,0,3.5972,3.5987,3.6114,3.6053,3.6068,3.6078,3.6116,3.6116,3.6138,3.6154,3.6155,3.613,3.6172,3.6184,3.6262,3.6312,3.6217,3.6222,3.647,3.6476,3.6481,3.6549,0,0,0,0,0,0,3.5967,3.5986,3.6026,3.6054,3.6072,3.6184,3.6119,3.612,3.6148,3.6142,3.6173,3.6176,3.6171,3.6254,3.6268,3.6318,3.6227,3.6466,3.6473,3.6479,3.6542,3.6556,3.6568,0,0,0,0,0,3.5961,3.6042,3.6028,3.6044,3.6121,3.6187,3.6197,3.619,3.6153,3.6191,3.6201,3.6174,3.6305,3.6263,3.6278,3.6331,3.6463,3.6471,3.6478,3.6537,3.6553,3.6567,0,0,0,0,0,0,3.6019,3.6046,3.603,3.6124,3.6153,3.6178,3.6227,3.6208,3.6248,3.6241,3.623,3.6238,3.632,3.6333,3.6286,3.6429,3.6378,3.6389,3.6417,3.6433,3.6445,3.6439,3.6232,0,0,0,0,0,3.6043,3.6095,3.6115,3.6196,3.6212,3.6217,3.6246,3.6238,3.6268,3.628,3.6295,3.6325,3.6372,3.6404,3.6448,3.6545,3.655,3.6589,3.6601,3.6612,3.6621,3.667,3.6687,3.6509,3.6509,3.6508,0,0,3.6092,3.6113,3.6147,3.6208,3.623,3.6282,3.6228,3.6287,3.6325,3.6289,3.6363,3.6376,3.6408,3.6495,3.6535,3.6509,3.6671,3.6622,3.663,3.6633,3.668,3.6697,3.6712,3.6514,3.6513,3.6512,0,0,3.6208,3.6231,3.6299,3.6322,3.6356,3.6359,3.6376,3.6404,3.6411,3.6486,3.6459,3.6504,3.6587,3.661,3.6633,3.6757,3.6733,3.6772,3.6837,3.6885,3.6899,3.6912,3.6953,3.6968,3.6782,3.6782,3.6782,0,3.6265,3.6344,3.6336,3.6396,3.6423,3.6393,3.6461,3.6484,3.6531,3.6549,3.6521,3.6622,3.6642,3.6733,3.6763,3.6784,3.68,3.6767,3.6898,3.691,3.6922,3.6961,3.6977,3.6786,3.6786,3.6785,3.6785,0,3.641,3.6465,3.6516,3.6562,3.6595,3.6658,3.6659,3.6693,3.6683,3.6688,3.6764,3.6787,3.6834,3.6856,3.6847,3.6945,3.6928,3.69,3.6847,3.6943,3.6979,3.6995,3.6792,3.6791,3.6789,3.6788,0,0,3.6563,3.6604,3.6622,3.6641,3.6677,3.6719,3.6781,3.6827,3.6855,3.6889,3.6939,3.7009,3.6982,3.7008,3.7001,3.7044,3.7137,3.7009,3.7009,3.7029,3.7243,3.7263,3.728,3.7122,3.7125,3.7128,3.724,0,3.6679,3.6786,3.6781,3.6882,3.6931,3.6903,3.6957,3.6983,3.6991,3.7033,3.704,3.7089,3.7051,3.7066,3.7108,3.7117,3.7179,3.7109,3.7166,3.7168,3.7156,3.73,3.7321,3.7425,3.7254,3.7257,3.7258,0,3.6827,3.6865,3.6971,3.6997,3.7017,3.7065,3.7106,3.7148,3.7177,3.7179,3.7208,3.7193,3.7254,3.7203,3.7285,3.7238,3.7261,3.7269,3.7273,3.7276,3.7217,3.7303,3.7459,3.7473,3.7282,3.728,3.7278,0,3.6924,3.7002,3.7074,3.7092,3.7125,3.7159,3.7175,3.7201,3.7229,3.7265,3.7282,3.7326,3.7348,3.7382,3.7379,3.7342,3.7462,3.741,3.7463,3.7463,3.7487,3.7485,3.7645,3.7508,3.7508,3.7507,3.7507,0,3.7052,3.7116,3.7118,3.7162,3.7233,3.7227,3.7297,3.7308,3.7332,3.7376,3.7356,3.7399,3.7394,3.7436,3.7435,3.7501,3.7513,3.7515,3.7513,3.7515,3.7514,3.7528,3.7519,3.7511,3.751,3.751,3.7509,0,3.7171,3.7175,3.7251,3.7276,3.7284,3.7335,3.7356,3.7397,3.7403,3.7459,3.7472,3.7481,3.7529,3.7531,3.7587,3.7586,3.7666,3.7658,3.7656,3.7653,3.7704,3.7698,3.7876,3.7898,3.775,3.7751,3.7752,0,3.725,3.7299,3.7329,3.7358,3.7375,3.7422,3.745,3.7446,3.7475,3.7512,3.7548,3.7595,3.7631,3.771,3.7721,3.7763,3.7754,3.7813,3.776,3.7759,3.7751,3.7746,3.775,3.7823,3.7824,3.7826,3.7827,0,3.739,3.7389,3.743,3.7472,3.7506,3.7539,3.757,3.7594,3.7593,3.7627,3.7677,3.7705,3.7762,3.7808,3.7849,3.7863,3.7844,3.7844,3.7858,3.7858,3.7854,3.7853,3.7681,3.7839,3.7838,3.7837,3.7836,3.7836,3.7489,3.753,3.7557,3.7603,3.7626,3.7654,3.7693,3.7704,3.7745,3.7791,3.7786,3.784,3.7867,3.792,3.7938,3.7979,3.7958,3.7979,3.7984,3.7988,3.7992,3.785,3.7987,3.7987,3.7987,3.7986,3.7986,0,3.7624,3.764,3.7683,3.7726,3.7762,3.7742,3.7775,3.7805,3.7854,3.788,3.7917,3.7973,3.8017,3.8031,3.8074,3.8104,3.8096,3.8115,3.8111,3.8114,3.801,3.7992,3.812,3.812,3.812,3.812,3.812,3.812,3.7699,3.7766,3.7769,3.7847,3.7862,3.7915,3.7935,3.796,3.7981,3.8045,3.8081,3.809,3.8112,3.8155,3.8194,3.8197,3.8212,3.8234,3.8233,3.8135,3.8122,3.8109,3.8092,3.8238,3.8239,3.8333,3.8334,3.8335]},{"header":{"parameterUnit":"m.s-1","parameterCategory":1,"la1":30.2991,"la2":30.254,"lo1":-89.0895,"lo2":-89.0444,"dy":0.0017,"dx":0.0017,"nx":28,"ny":28,"refTime":"2024-07-15T09:00:00:Z","depth":0,"parameterNumber":3,"parameterNumberName":"V-component_of_WINDS"},"data":[0,0,0,0,0,0,0,0,0,0,0,0,0,0,0,0,0,0,0,0,0,0,0,0,0,0,0,0,0,0,0,0,0,0,0,0,0,0,0,0,0,0,0,0,0,0,0,0,0,0,0,0,0,0,0,0,0,0,3.1456,3.1456,0,3.154,3.1541,3.1542,3.1539,3.1538,3.1537,3.1536,3.1618,3.1621,3.1624,0,0,0,0,0,0,0,0,0,0,0,0,0,3.1286,3.1289,3.1455,3.1456,3.1458,3.154,3.1541,3.1542,3.1539,3.1538,3.1537,3.1535,3.1616,3.162,3.1624,0,0,0,0,0,0,0,0,0,0,0,0,0,3.1364,3.129,3.1455,3.1466,3.1468,3.154,3.1541,3.1543,3.154,3.1538,3.1536,3.1535,3.1615,3.162,3.1625,3.169,0,0,3.164,3.1642,0,0,0,0,0,0,0,0,3.1359,3.137,3.1463,3.1466,3.1468,3.1527,3.1511,3.1592,3.154,3.1512,3.1536,3.1534,3.1589,3.1596,3.1615,3.1694,3.1697,3.164,3.1643,3.1645,3.1647,0,0,0,0,0,0,0,3.1354,3.1366,3.1489,3.1465,3.1467,3.1465,3.1474,3.1527,3.1559,3.1515,3.1515,3.1525,3.1589,3.161,3.1617,3.1698,3.164,3.1644,3.1647,3.1649,3.1833,3.1835,0,0,0,0,0,0,3.1347,3.1362,3.1486,3.1491,3.1408,3.1469,3.148,3.151,3.1558,3.1564,3.1526,3.1524,3.1603,3.1611,3.162,3.1698,3.1645,3.165,3.1653,3.1831,3.1833,3.1835,0,0,0,0,0,0,3.1343,3.1358,3.1483,3.1427,3.1442,3.1474,3.1508,3.1513,3.1534,3.1567,3.1573,3.1542,3.1602,3.1613,3.1672,3.1701,3.1652,3.1656,3.1828,3.1831,3.1834,3.1856,0,0,0,0,0,0,3.1338,3.1357,3.1383,3.1427,3.1445,3.1536,3.151,3.1515,3.1543,3.1541,3.1584,3.1589,3.1601,3.1665,3.1677,3.1707,3.166,3.1826,3.183,3.1833,3.1853,3.1859,3.1865,0,0,0,0,0,3.1332,3.1385,3.1384,3.1399,3.1479,3.1537,3.1547,3.1562,3.1545,3.1571,3.1592,3.1588,3.1696,3.1671,3.1685,3.1716,3.1824,3.1829,3.1833,3.185,3.1858,3.1865,0,0,0,0,0,0,3.1342,3.1391,3.1391,3.146,3.1495,3.1537,3.157,3.157,3.1609,3.1606,3.162,3.163,3.1689,3.1709,3.168,3.1781,3.1758,3.1765,3.1766,3.1774,3.178,3.1773,3.1664,0,0,0,0,0,3.1352,3.1397,3.1437,3.1494,3.1512,3.1538,3.1564,3.1572,3.1608,3.1622,3.1648,3.1681,3.1722,3.1749,3.179,3.1856,3.1864,3.1884,3.189,3.1895,3.1901,3.1936,3.1945,3.185,3.1849,3.1849,0,0,3.1374,3.1406,3.1433,3.1497,3.1525,3.1569,3.155,3.1598,3.163,3.1628,3.1686,3.1706,3.1744,3.1807,3.1836,3.1825,3.1929,3.19,3.1904,3.1907,3.1941,3.195,3.1958,3.1852,3.1852,3.1851,0,0,3.1435,3.1465,3.1515,3.1544,3.1587,3.1604,3.1616,3.1658,3.1672,3.173,3.173,3.1767,3.1839,3.1866,3.1889,3.196,3.1956,3.1972,3.2003,3.2037,3.2045,3.2051,3.2075,3.2084,3.1978,3.1978,3.1978,0,3.1456,3.1524,3.1541,3.1589,3.1616,3.1618,3.1668,3.1694,3.1747,3.1765,3.1752,3.1842,3.1868,3.1936,3.1954,3.1973,3.1985,3.1967,3.2043,3.205,3.2056,3.2079,3.2088,3.198,3.198,3.1979,3.1979,0,3.1547,3.1594,3.1629,3.1682,3.1713,3.1762,3.1784,3.1813,3.1818,3.1836,3.1895,3.1926,3.1972,3.1989,3.1994,3.2058,3.2049,3.204,3.2016,3.2066,3.2088,3.2097,3.1982,3.1982,3.1981,3.1981,0,0,3.1617,3.1678,3.1691,3.1714,3.1761,3.1797,3.1845,3.1891,3.1915,3.1952,3.1991,3.2051,3.2042,3.2068,3.2077,3.2107,3.2159,3.2093,3.2094,3.2103,3.2229,3.2236,3.2246,3.2158,3.2159,3.2161,3.2226,0,3.1682,3.177,3.1785,3.186,3.1903,3.1905,3.1947,3.1979,3.1997,3.2034,3.2053,3.2095,3.2081,3.2096,3.2126,3.2147,3.2184,3.2142,3.2192,3.2194,3.2182,3.2258,3.2265,3.2325,3.2235,3.2236,3.2237,0,3.1771,3.1811,3.189,3.1931,3.1949,3.1987,3.203,3.2066,3.2102,3.2113,3.2142,3.2146,3.2194,3.2169,3.2234,3.2205,3.2226,3.2239,3.2242,3.2246,3.2218,3.2263,3.2344,3.2353,3.2251,3.225,3.2249,0,3.1812,3.1885,3.1942,3.1963,3.2012,3.2038,3.2059,3.2094,3.212,3.2157,3.2174,3.2216,3.2238,3.227,3.2285,3.2265,3.2348,3.2325,3.2356,3.2356,3.2373,3.2371,3.2458,3.2388,3.2388,3.2388,3.2388,0,3.1883,3.1931,3.1962,3.1997,3.205,3.2067,3.2119,3.2139,3.217,3.2207,3.2212,3.2246,3.2264,3.2301,3.2313,3.2364,3.2374,3.2383,3.2385,3.2382,3.2381,3.2395,3.2391,3.2391,3.239,3.239,3.2389,0,3.1938,3.196,3.2022,3.2064,3.2076,3.2113,3.2148,3.2181,3.2198,3.2246,3.2258,3.2285,3.2328,3.2346,3.2399,3.2407,3.2465,3.2465,3.2454,3.2454,3.2484,3.2481,3.2582,3.2596,3.2519,3.2519,3.252,0,3.1981,3.2018,3.2064,3.2091,3.2113,3.2155,3.2183,3.22,3.2228,3.2272,3.2299,3.2343,3.2379,3.2448,3.2471,3.2511,3.2511,3.2544,3.2517,3.2512,3.251,3.2507,3.251,3.2548,3.2549,3.255,3.255,0,3.2055,3.2064,3.2105,3.2149,3.2182,3.2217,3.2251,3.2272,3.2294,3.2325,3.2371,3.2399,3.2453,3.2496,3.2538,3.2557,3.2557,3.2559,3.2568,3.2564,3.2556,3.256,3.2466,3.2556,3.2555,3.2555,3.2555,3.2554,3.2104,3.2137,3.2175,3.2219,3.2247,3.2279,3.2312,3.2334,3.2373,3.242,3.2427,3.2475,3.2509,3.2565,3.2586,3.2622,3.2614,3.2628,3.2631,3.2634,3.2635,3.2551,3.263,3.263,3.263,3.263,3.263,0,3.2177,3.2202,3.2243,3.2291,3.2325,3.2324,3.2362,3.239,3.2433,3.2465,3.2501,3.2552,3.2594,3.262,3.2661,3.2685,3.2686,3.2695,3.2693,3.2697,3.2641,3.2628,3.2694,3.2694,3.2694,3.2694,3.2694,3.2694,3.2219,3.2275,3.2288,3.2357,3.2381,3.2429,3.245,3.2479,3.2505,3.2562,3.2598,3.2615,3.2645,3.2688,3.2725,3.2732,3.2746,3.2756,3.2762,3.2708,3.2701,3.2695,3.2683,3.2759,3.2759,3.2815,3.2815,3.2816]}]]